�������l�o���
Date,Time,MP-1(��Sv/h),MP-2(��Sv/h),MP-3(��Sv/h),MP-4(��Sv/h),MP-5(��Sv/h),MP-6(��Sv/h),MP-7(��Sv/h),����,����(m/s),���J
2022/11/02,00:00,0.156,0.140,0.224,0.215,0.215,0.124,0.079,��,3.6,�L
2022/11/02,00:10,0.155,0.142,0.225,0.216,0.217,0.124,0.080,��쓌,4.4,�L
2022/11/02,00:20,0.155,0.141,0.224,0.215,0.216,0.124,0.080,��,3.4,�L
2022/11/02,00:30,0.156,0.142,0.224,0.216,0.217,0.124,0.080,���쐼,1.8,�L
2022/11/02,00:40,0.156,0.140,0.225,0.216,0.216,0.123,0.080,��,3.6,��
2022/11/02,00:50,0.155,0.139,0.223,0.213,0.215,0.124,0.079,��,4.5,��
2022/11/02,01:00,0.157,0.140,0.224,0.215,0.216,0.124,0.079,��,4.2,�L
2022/11/02,01:10,0.155,0.140,0.222,0.213,0.214,0.124,0.079,�쐼,3.3,�L
2022/11/02,01:20,0.157,0.141,0.222,0.214,0.216,0.123,0.079,���쐼,3.3,�L
2022/11/02,01:30,0.156,0.141,0.223,0.214,0.214,0.122,0.079,���쐼,2.7,�L
2022/11/02,01:40,0.155,0.140,0.223,0.214,0.215,0.123,0.079,�쐼,2.6,��
2022/11/02,01:50,0.155,0.139,0.224,0.215,0.215,0.122,0.079,���쐼,2.1,��
2022/11/02,02:00,0.156,0.141,0.223,0.213,0.215,0.124,0.078,��,2.4,�L
2022/11/02,02:10,0.155,0.141,0.223,0.215,0.216,0.122,0.078,���k��,1.8,�L
2022/11/02,02:20,0.155,0.140,0.222,0.213,0.215,0.122,0.078,��,1.5,��
2022/11/02,02:30,0.155,0.140,0.223,0.214,0.216,0.123,0.078,���쐼,1.8,��
2022/11/02,02:40,0.155,0.140,0.223,0.214,0.214,0.123,0.078,��,0.9,��
2022/11/02,02:50,0.155,0.140,0.223,0.213,0.217,0.123,0.078,-,CALM,��
2022/11/02,03:00,0.155,0.140,0.223,0.214,0.214,0.122,0.078,���쓌,0.7,��
2022/11/02,03:10,0.156,0.140,0.222,0.214,0.215,0.123,0.079,-,CALM,��
2022/11/02,03:20,0.155,0.140,0.222,0.213,0.216,0.123,0.079,�k�k��,0.6,��
2022/11/02,03:30,0.156,0.140,0.222,0.214,0.214,0.123,0.079,-,CALM,��
2022/11/02,03:40,0.156,0.139,0.224,0.213,0.215,0.123,0.079,��,0.9,��
2022/11/02,03:50,0.155,0.140,0.223,0.213,0.214,0.123,0.078,-,CALM,��
2022/11/02,04:00,0.155,0.140,0.222,0.214,0.216,0.123,0.079,�k��,0.7,��
2022/11/02,04:10,0.156,0.141,0.221,0.213,0.215,0.122,0.079,�k�k��,0.8,��
2022/11/02,04:20,0.155,0.140,0.223,0.214,0.214,0.123,0.078,�k�k��,1.5,��
2022/11/02,04:30,0.156,0.140,0.223,0.214,0.215,0.122,0.079,�k�k��,1.1,��
2022/11/02,04:40,0.156,0.140,0.221,0.214,0.214,0.124,0.078,�k,1.2,��
2022/11/02,04:50,0.154,0.140,0.222,0.214,0.215,0.123,0.079,�k�k��,1.3,��
2022/11/02,05:00,0.155,0.140,0.222,0.214,0.215,0.122,0.078,�k�k��,1.6,��
2022/11/02,05:10,0.154,0.140,0.223,0.215,0.215,0.123,0.078,�k�k��,1.5,��
2022/11/02,05:20,0.155,0.140,0.223,0.214,0.216,0.122,0.078,�k��,2.0,��
2022/11/02,05:30,0.155,0.139,0.223,0.213,0.214,0.123,0.078,���k��,1.2,��
2022/11/02,05:40,0.154,0.141,0.222,0.213,0.214,0.123,0.078,��,0.7,��
2022/11/02,05:50,0.156,0.140,0.222,0.213,0.214,0.122,0.079,�k��,1.5,��
2022/11/02,06:00,0.155,0.140,0.223,0.213,0.214,0.123,0.078,�k��,2.6,��
2022/11/02,06:10,0.155,0.140,0.222,0.213,0.215,0.123,0.078,�k��,2.7,��
2022/11/02,06:20,0.155,0.140,0.222,0.214,0.213,0.122,0.078,�k�k��,2.5,��
2022/11/02,06:30,0.156,0.140,0.222,0.213,0.214,0.123,0.078,�k�k��,1.7,��
2022/11/02,06:40,0.155,0.139,0.223,0.213,0.215,0.123,0.078,�k��,2.1,��
2022/11/02,06:50,0.155,0.140,0.222,0.213,0.215,0.122,0.078,�k��,2.1,��
2022/11/02,07:00,0.155,0.139,0.222,0.215,0.215,0.122,0.078,�k��,1.8,��
2022/11/02,07:10,0.155,0.140,0.223,0.213,0.214,0.122,0.078,�k��,1.2,��
2022/11/02,07:20,0.154,0.140,0.222,0.213,0.214,0.123,0.077,�k�k��,1.1,��
2022/11/02,07:30,0.155,0.139,0.222,0.213,0.215,0.123,0.078,�k�k��,1.1,��
2022/11/02,07:40,0.156,0.140,0.223,0.212,0.214,0.121,0.078,�k�k��,1.1,��
2022/11/02,07:50,0.154,0.140,0.222,0.212,0.215,0.122,0.078,�k�k��,2.7,��
2022/11/02,08:00,0.156,0.139,0.222,0.212,0.214,0.122,0.078,�k�k��,0.6,��
2022/11/02,08:10,0.156,0.140,0.224,0.213,0.216,0.124,0.078,�k�k��,1.0,��
2022/11/02,08:20,0.155,0.141,0.222,0.212,0.213,0.121,0.079,�k��,0.7,��
2022/11/02,08:30,0.155,0.139,0.221,0.213,0.215,0.121,0.078,��,1.0,��
2022/11/02,08:40,0.155,0.139,0.222,0.213,0.214,0.122,0.078,���쐼,0.8,��
2022/11/02,08:50,0.155,0.140,0.221,0.210,0.214,0.123,0.078,�쐼,0.9,��
2022/11/02,09:00,0.155,0.140,0.223,0.213,0.214,0.122,0.079,-,CALM,��
2022/11/02,09:10,0.155,0.140,0.221,0.212,0.216,0.122,0.078,-,CALM,��
2022/11/02,09:20,0.154,0.140,0.223,0.211,0.213,0.122,0.077,��쓌,1.6,��
2022/11/02,09:30,0.155,0.140,0.222,0.213,0.212,0.122,0.078,��쓌,1.4,��
2022/11/02,09:40,0.154,0.139,0.222,0.214,0.215,0.122,0.078,��,1.7,��
2022/11/02,09:50,0.153,0.141,0.222,0.211,0.214,0.122,0.079,�쓌,0.9,��
2022/11/02,10:00,0.152,0.139,0.221,0.213,0.213,0.122,0.078,�쓌,1.5,��
2022/11/02,10:10,0.155,0.139,0.221,0.215,0.211,0.122,0.077,�쓌,1.2,��
2022/11/02,10:20,0.155,0.140,0.222,0.212,0.214,0.121,0.077,�쓌,1.9,��
2022/11/02,10:30,0.153,0.139,0.221,0.210,0.214,0.122,0.078,�쓌,1.8,��
2022/11/02,10:40,0.152,0.139,0.219,0.214,0.213,0.122,0.077,���쓌,1.7,��
2022/11/02,10:50,0.152,0.140,0.219,0.213,0.212,0.123,0.079,���쓌,1.6,��
2022/11/02,11:00,0.153,0.140,0.222,0.213,0.211,0.122,0.079,���쓌,1.2,��
2022/11/02,11:10,0.153,0.139,0.221,0.212,0.215,0.123,0.077,���쓌,0.9,��
2022/11/02,11:20,0.152,0.139,0.221,0.212,0.215,0.122,0.078,���쓌,1.3,��
2022/11/02,11:30,0.152,0.141,0.220,0.214,0.215,0.123,0.078,���쓌,1.0,��
2022/11/02,11:40,0.153,0.141,0.222,0.213,0.213,0.123,0.079,�쓌,2.0,��
2022/11/02,11:50,0.151,0.139,0.224,0.212,0.212,0.123,0.078,�쓌,1.4,��
2022/11/02,12:00,0.154,0.139,0.222,0.211,0.212,0.122,0.077,�쓌,1.5,��
2022/11/02,12:10,0.154,0.137,0.222,0.214,0.212,0.122,0.077,���쓌,1.9,��
2022/11/02,12:20,0.153,0.139,0.220,0.215,0.212,0.123,0.078,���쓌,1.7,��
2022/11/02,12:30,0.155,0.140,0.223,0.213,0.216,0.122,0.078,���쓌,1.7,��
2022/11/02,12:40,0.153,0.140,0.224,0.212,0.215,0.123,0.078,��,1.5,��
2022/11/02,12:50,0.153,0.139,0.222,0.212,0.214,0.123,0.078,���쓌,1.7,��
2022/11/02,13:00,0.154,0.139,0.221,0.213,0.213,0.122,0.078,���쓌,1.6,��
2022/11/02,13:10,0.153,0.138,0.220,0.216,0.212,0.122,0.078,��,1.6,��
2022/11/02,13:20,0.154,0.140,0.221,0.213,0.211,0.122,0.078,��,1.6,��
2022/11/02,13:30,0.154,0.141,0.223,0.213,0.211,0.123,0.078,��,1.8,��
2022/11/02,13:40,0.153,0.140,0.222,0.211,0.216,0.122,0.078,��,1.9,��
2022/11/02,13:50,0.153,0.139,0.221,0.211,0.215,0.123,0.078,��,1.9,��
2022/11/02,14:00,0.156,0.139,0.223,0.214,0.213,0.122,0.078,��,1.6,��
2022/11/02,14:10,0.156,0.141,0.223,0.214,0.213,0.123,0.079,���쓌,1.4,��
2022/11/02,14:20,0.155,0.139,0.224,0.212,0.215,0.122,0.078,��,1.4,��
2022/11/02,14:30,0.156,0.138,0.223,0.215,0.215,0.122,0.077,���쓌,1.7,��
2022/11/02,14:40,0.155,0.140,0.222,0.214,0.214,0.123,0.078,��,1.2,��
2022/11/02,14:50,0.154,0.139,0.223,0.214,0.216,0.123,0.078,-,CALM,��
2022/11/02,15:00,0.156,0.140,0.222,0.215,0.213,0.122,0.078,�k��,0.9,��
2022/11/02,15:10,0.157,0.140,0.223,0.213,0.216,0.122,0.079,�k��,1.0,��
2022/11/02,15:20,0.154,0.140,0.221,0.215,0.214,0.122,0.078,�k��,1.1,��
2022/11/02,15:30,0.156,0.140,0.223,0.213,0.213,0.122,0.079,-,CALM,��
2022/11/02,15:40,0.153,0.139,0.221,0.215,0.216,0.121,0.077,�k,1.0,��
2022/11/02,15:50,0.156,0.141,0.222,0.214,0.214,0.123,0.079,�k,1.0,��
2022/11/02,16:00,0.156,0.139,0.222,0.213,0.213,0.122,0.077,�k,1.4,��
2022/11/02,16:10,0.154,0.141,0.222,0.215,0.215,0.122,0.077,�k,0.9,��
2022/11/02,16:20,0.155,0.140,0.222,0.213,0.213,0.122,0.078,�k,0.7,��
2022/11/02,16:30,0.154,0.140,0.223,0.214,0.215,0.122,0.078,-,CALM,��
2022/11/02,16:40,0.158,0.140,0.223,0.213,0.214,0.122,0.078,-,CALM,��
2022/11/02,16:50,0.155,0.139,0.223,0.214,0.215,0.122,0.078,-,CALM,��
2022/11/02,17:00,0.155,0.140,0.222,0.214,0.215,0.123,0.077,-,CALM,��
2022/11/02,17:10,0.154,0.140,0.224,0.215,0.213,0.122,0.078,-,CALM,��
2022/11/02,17:20,0.155,0.140,0.223,0.214,0.215,0.122,0.079,�k�k��,0.8,��
2022/11/02,17:30,0.154,0.139,0.224,0.216,0.214,0.123,0.079,�k,0.8,��
2022/11/02,17:40,0.155,0.141,0.222,0.214,0.216,0.122,0.078,�k�k��,1.0,��
2022/11/02,17:50,0.154,0.141,0.224,0.215,0.215,0.123,0.079,�k,1.2,��
2022/11/02,18:00,0.156,0.141,0.223,0.214,0.216,0.122,0.078,�k�k��,2.0,��
2022/11/02,18:10,0.154,0.140,0.224,0.215,0.213,0.122,0.078,�k�k��,2.3,��
2022/11/02,18:20,0.156,0.141,0.224,0.213,0.216,0.123,0.078,�k�k��,1.8,��
2022/11/02,18:30,0.155,0.140,0.223,0.215,0.214,0.123,0.079,�k�k��,2.3,��
2022/11/02,18:40,0.156,0.141,0.223,0.215,0.216,0.123,0.079,�k,1.5,��
2022/11/02,18:50,0.155,0.140,0.222,0.216,0.215,0.123,0.079,�k��,1.1,��
2022/11/02,19:00,0.156,0.141,0.225,0.214,0.216,0.122,0.079,�k,1.6,��
2022/11/02,19:10,0.154,0.140,0.223,0.213,0.214,0.123,0.078,�k��,0.6,��
2022/11/02,19:20,0.156,0.140,0.224,0.214,0.215,0.123,0.078,�k,1.3,��
2022/11/02,19:30,0.155,0.141,0.223,0.214,0.214,0.124,0.078,�k��,0.8,��
2022/11/02,19:40,0.157,0.141,0.224,0.214,0.216,0.122,0.078,�k��,0.8,��
2022/11/02,19:50,0.155,0.140,0.224,0.214,0.214,0.122,0.078,�k��,0.8,��
2022/11/02,20:00,0.156,0.139,0.222,0.214,0.216,0.123,0.078,-,CALM,��
2022/11/02,20:10,0.155,0.140,0.224,0.214,0.214,0.122,0.079,-,CALM,��
2022/11/02,20:20,0.156,0.141,0.224,0.214,0.216,0.122,0.079,-,CALM,��
2022/11/02,20:30,0.155,0.140,0.224,0.214,0.215,0.122,0.079,-,CALM,��
2022/11/02,20:40,0.155,0.140,0.223,0.214,0.215,0.123,0.079,-,CALM,��
2022/11/02,20:50,0.155,0.140,0.224,0.214,0.215,0.123,0.079,-,CALM,��
2022/11/02,21:00,0.155,0.141,0.225,0.215,0.215,0.123,0.078,-,CALM,��
2022/11/02,21:10,0.155,0.140,0.223,0.214,0.214,0.122,0.079,-,CALM,��
2022/11/02,21:20,0.155,0.140,0.223,0.213,0.216,0.123,0.078,-,CALM,��
2022/11/02,21:30,0.155,0.140,0.223,0.213,0.213,0.123,0.078,-,CALM,��
2022/11/02,21:40,0.155,0.141,0.224,0.214,0.216,0.122,0.078,-,CALM,��
2022/11/02,21:50,0.156,0.140,0.224,0.215,0.215,0.122,0.078,-,CALM,��
2022/11/02,22:00,0.156,0.140,0.223,0.212,0.215,0.123,0.079,-,CALM,��
2022/11/02,22:10,0.155,0.141,0.223,0.213,0.215,0.122,0.079,-,CALM,��
2022/11/02,22:20,0.155,0.140,0.223,0.214,0.216,0.123,0.078,-,CALM,��
2022/11/02,22:30,0.156,0.140,0.223,0.215,0.214,0.122,0.078,-,CALM,��
2022/11/02,22:40,0.155,0.140,0.224,0.214,0.215,0.123,0.078,���쐼,0.7,��
2022/11/02,22:50,0.156,0.141,0.224,0.213,0.215,0.122,0.078,-,CALM,��
2022/11/02,23:00,0.154,0.140,0.224,0.213,0.215,0.122,0.079,��,0.8,��
2022/11/02,23:10,0.155,0.141,0.224,0.214,0.215,0.123,0.079,-,CALM,��
2022/11/02,23:20,0.155,0.140,0.225,0.215,0.214,0.122,0.078,���쐼,0.7,��
2022/11/02,23:30,0.155,0.140,0.223,0.214,0.215,0.123,0.078,��,0.9,��
2022/11/02,23:40,0.155,0.141,0.224,0.216,0.215,0.122,0.079,���쐼,0.6,��
2022/11/02,23:50,0.155,0.141,0.224,0.214,0.215,0.123,0.078,���쐼,0.7,��
